Time,TemperatureF,DewpointF,PressureIn,WindDirection,WindDirectionDegrees,WindSpeedMPH,WindSpeedGustMPH,Humidity,HourlyPrecipIn,Conditions,Clouds,dailyrainin,SolarRadiationWatts/m^2,SoftwareType,DateUTC
2013-03-16 00:00:00,30.9,24.5,29.77,WNW,299,3.3,4.6,77,0.00,CLR,,0.00,0.0,WeatherDisplay:10.37,2013-03-16 04:00:00,
2013-03-16 00:05:00,30.7,24.3,29.77,NW,313,3.5,8.1,77,0.00,FEW,,0.00,0.0,WeatherDisplay:10.37,2013-03-16 04:05:00,
2013-03-16 00:10:00,30.5,24.5,29.77,NW,319,4.9,8.1,78,0.00,FEW,,0.00,0.0,WeatherDisplay:10.37,2013-03-16 04:10:00,
2013-03-16 00:15:00,30.4,24.1,29.77,WNW,299,8.0,13.0,77,0.00,FEW,,0.00,0.0,WeatherDisplay:10.37,2013-03-16 04:15:00,
2013-03-16 00:20:00,30.6,24.8,29.77,WNW,294,2.0,8.0,79,0.00,FEW,,0.00,0.0,WeatherDisplay:10.37,2013-03-16 04:20:00,
2013-03-16 00:25:00,30.8,25.1,29.78,WNW,302,4.7,5.8,79,0.00,FEW,,0.00,0.0,WeatherDisplay:10.37,2013-03-16 04:25:00,
2013-03-16 00:30:00,31.0,25.2,29.78,NW,313,3.0,5.0,79,0.00,FEW,,0.00,0.0,WeatherDisplay:10.37,2013-03-16 04:30:00,
2013-03-16 00:35:00,31.2,25.4,29.78,North,9,2.1,3.5,79,0.00,FEW,,0.00,0.0,WeatherDisplay:10.37,2013-03-16 04:35:00,
2013-03-16 00:40:00,31.2,25.7,29.78,NE,44,1.8,8.1,80,0.00,FEW,,0.00,0.0,WeatherDisplay:10.37,2013-03-16 04:40:00,
2013-03-16 00:45:00,31.0,25.8,29.79,NE,34,3.0,6.0,81,0.00,FEW,,0.00,0.0,WeatherDisplay:10.37,2013-03-16 04:45:00,
2013-03-16 00:50:00,30.7,25.8,29.79,NE,37,3.0,5.0,82,0.00,FEW,,0.00,0.0,WeatherDisplay:10.37,2013-03-16 04:50:00,
2013-03-16 00:55:00,30.4,26.1,29.79,NE,37,2.5,3.5,84,0.00,FEW,,0.00,0.0,WeatherDisplay:10.37,2013-03-16 04:55:00,
2013-03-16 01:00:00,30.2,25.9,29.79,NNE,33,3.0,5.0,84,0.00,FEW,,0.00,0.0,WeatherDisplay:10.37,2013-03-16 05:00:00,
2013-03-16 01:05:00,29.9,25.7,29.80,NNE,28,1.0,5.0,84,0.00,-SN,,0.00,0.0,WeatherDisplay:10.37,2013-03-16 05:05:00,
2013-03-16 01:10:00,29.7,25.2,29.80,NE,47,2.0,6.0,83,0.00,-SN,,0.00,0.0,WeatherDisplay:10.37,2013-03-16 05:10:00,
2013-03-16 01:15:00,29.5,25.0,29.80,NE,53,1.0,4.0,83,0.00,-SN,,0.00,0.0,WeatherDisplay:10.37,2013-03-16 05:15:00,
2013-03-16 01:20:00,29.3,25.1,29.80,ENE,61,2.4,3.5,84,0.00,-SN,,0.00,0.0,WeatherDisplay:10.37,2013-03-16 05:20:00,
2013-03-16 01:25:00,29.2,25.0,29.80,ENE,59,1.0,4.0,84,0.00,-SN,,0.00,0.0,WeatherDisplay:10.37,2013-03-16 05:25:00,
2013-03-16 01:30:00,29.2,24.7,29.80,NE,46,2.1,5.0,83,0.00,-SN,,0.00,0.0,WeatherDisplay:10.37,2013-03-16 05:30:00,
2013-03-16 01:35:00,29.2,24.4,29.81,NE,37,3.0,6.0,82,0.00,-SN,,0.00,0.0,WeatherDisplay:10.37,2013-03-16 05:35:00,
2013-03-16 01:40:00,29.2,24.4,29.81,NNE,29,2.0,6.0,82,0.00,-SN,,0.00,0.0,WeatherDisplay:10.37,2013-03-16 05:40:00,
2013-03-16 01:45:00,29.3,24.2,29.81,NNE,14,2.0,4.6,81,0.00,-SN,,0.00,0.0,WeatherDisplay:10.37,2013-03-16 05:45:00,
2013-03-16 01:50:00,29.3,24.2,29.81,NE,55,3.7,8.1,81,0.00,-SN,,0.00,0.0,WeatherDisplay:10.37,2013-03-16 05:50:00,
2013-03-16 01:55:00,29.3,24.2,29.81,NNE,33,2.0,6.0,81,0.00,-SN,,0.00,0.0,WeatherDisplay:10.37,2013-03-16 05:55:00,
2013-03-16 02:00:00,29.2,23.5,29.81,NNE,28,3.2,4.6,79,0.00,-SN,,0.00,0.0,WeatherDisplay:10.37,2013-03-16 06:00:00,
2013-03-16 02:05:00,29.2,23.5,29.82,NNE,23,3.0,5.0,79,0.00,-SN,,0.00,0.0,WeatherDisplay:10.37,2013-03-16 06:05:00,
2013-03-16 02:10:00,29.2,23.5,29.82,NNE,16,2.2,3.5,79,0.00,-SN,,0.00,0.0,WeatherDisplay:10.37,2013-03-16 06:10:00,
2013-03-16 02:15:00,29.1,22.5,29.82,North,5,3.0,9.0,76,0.00,-SN,,0.00,0.0,WeatherDisplay:10.37,2013-03-16 06:15:00,
2013-03-16 02:20:00,29.1,22.5,29.82,North,356,3.0,6.0,76,0.00,-SN,,0.00,0.0,WeatherDisplay:10.37,2013-03-16 06:20:00,
2013-03-16 02:25:00,29.0,21.4,29.82,NNW,347,3.7,5.8,73,0.00,-SN,,0.00,0.0,WeatherDisplay:10.37,2013-03-16 06:25:00,
2013-03-16 02:30:00,29.0,20.8,29.82,North,351,4.3,5.8,71,0.00,-SN,,0.00,0.0,WeatherDisplay:10.37,2013-03-16 06:30:00,
2013-03-16 02:35:00,28.9,20.3,29.82,NNW,348,3.0,7.0,70,0.00,-SN,,0.00,0.0,WeatherDisplay:10.37,2013-03-16 06:35:00,
2013-03-16 02:40:00,28.7,19.5,29.82,North,353,3.0,10.0,68,0.00,-SN,,0.00,0.0,WeatherDisplay:10.37,2013-03-16 06:40:00,
2013-03-16 02:45:00,28.6,18.7,29.82,North,359,6.0,7.0,66,0.00,-SN,,0.00,0.0,WeatherDisplay:10.37,2013-03-16 06:45:00,
2013-03-16 02:50:00,28.5,18.2,29.82,NNW,342,4.4,6.9,65,0.00,-SN,,0.00,0.0,WeatherDisplay:10.37,2013-03-16 06:50:00,
2013-03-16 02:55:00,28.4,17.8,29.82,NNW,336,3.7,9.2,64,0.00,-SN,,0.00,0.0,WeatherDisplay:10.37,2013-03-16 06:55:00,
2013-03-16 03:00:00,28.2,17.9,29.81,NNW,345,3.2,5.8,65,0.00,-SN,,0.00,0.0,WeatherDisplay:10.37,2013-03-16 07:00:00,
2013-03-16 03:05:00,28.0,17.7,29.82,NNW,342,3.0,7.0,65,0.00,-SN,,0.00,0.0,WeatherDisplay:10.37,2013-03-16 07:05:00,
2013-03-16 03:10:00,27.9,17.6,29.82,NW,322,4.4,6.0,65,0.00,-SN,,0.00,0.0,WeatherDisplay:10.37,2013-03-16 07:10:00,
2013-03-16 03:15:00,27.8,17.5,29.82,NNW,331,3.0,7.0,65,0.00,-SN,,0.00,0.0,WeatherDisplay:10.37,2013-03-16 07:15:00,
2013-03-16 03:20:00,27.6,17.4,29.82,NW,322,3.0,12.0,65,0.00,-SN,,0.00,0.0,WeatherDisplay:10.37,2013-03-16 07:20:00,
2013-03-16 03:25:00,27.5,17.2,29.82,NNW,331,3.0,12.0,65,0.00,-SN,,0.00,0.0,WeatherDisplay:10.37,2013-03-16 07:25:00,
2013-03-16 03:30:00,27.3,17.1,29.82,NNW,329,3.0,7.0,65,0.00,-SN,,0.00,0.0,WeatherDisplay:10.37,2013-03-16 07:30:00,
2013-03-16 03:35:00,27.2,17.3,29.82,NNW,327,5.0,7.0,66,0.00,-SN,,0.00,0.0,WeatherDisplay:10.37,2013-03-16 07:35:00,
2013-03-16 03:40:00,27.1,17.2,29.82,NNW,346,3.9,5.8,66,0.00,-SN,,0.00,0.0,WeatherDisplay:10.37,2013-03-16 07:40:00,
2013-03-16 03:45:00,27.0,17.1,29.83,NW,323,3.0,6.0,66,0.00,-SN,,0.00,0.0,WeatherDisplay:10.37,2013-03-16 07:45:00,
2013-03-16 03:50:00,26.9,17.0,29.83,NNW,337,2.3,4.6,66,0.00,-SN,,0.00,0.0,WeatherDisplay:10.37,2013-03-16 07:50:00,
2013-03-16 03:55:00,26.8,17.0,29.83,NNW,347,3.5,5.8,66,0.00,-SN,,0.00,0.0,WeatherDisplay:10.37,2013-03-16 07:55:00,
2013-03-16 04:00:00,26.7,17.5,29.83,NNW,345,2.0,5.0,68,0.00,-SN,,0.00,0.0,WeatherDisplay:10.37,2013-03-16 08:00:00,
2013-03-16 04:05:00,26.5,17.4,29.83,NNW,330,2.2,4.6,68,0.00,SCT,,0.00,0.0,WeatherDisplay:10.37,2013-03-16 08:05:00,
2013-03-16 04:10:00,26.3,17.2,29.83,NW,324,2.0,6.0,68,0.00,SCT,,0.00,0.0,WeatherDisplay:10.37,2013-03-16 08:10:00,
2013-03-16 04:15:00,26.1,17.0,29.83,NW,324,2.0,6.0,68,0.00,SCT,,0.00,0.0,WeatherDisplay:10.37,2013-03-16 08:15:00,
2013-03-16 04:20:00,25.9,17.1,29.83,NW,315,0.3,3.5,69,0.00,SCT,,0.00,0.0,WeatherDisplay:10.37,2013-03-16 08:20:00,
2013-03-16 04:25:00,25.6,16.8,29.83,NW,317,1.0,2.0,69,0.00,SCT,,0.00,0.0,WeatherDisplay:10.37,2013-03-16 08:25:00,
2013-03-16 04:30:00,25.3,16.9,29.83,NW,315,1.3,2.3,70,0.00,SCT,,0.00,0.0,WeatherDisplay:10.37,2013-03-16 08:30:00,
2013-03-16 04:35:00,25.1,16.7,29.83,NW,315,0.9,2.3,70,0.00,SCT,,0.00,0.0,WeatherDisplay:10.37,2013-03-16 08:35:00,
2013-03-16 04:40:00,25.1,17.0,29.84,NW,315,1.0,3.0,71,0.00,SCT,,0.00,0.0,WeatherDisplay:10.37,2013-03-16 08:40:00,
2013-03-16 04:45:00,24.8,17.1,29.84,NNW,328,1.0,4.0,72,0.00,SCT,,0.00,0.0,WeatherDisplay:10.37,2013-03-16 08:45:00,
2013-03-16 04:50:00,24.7,17.0,29.84,NNW,337,0.7,1.1,72,0.00,SCT,,0.00,0.0,WeatherDisplay:10.37,2013-03-16 08:50:00,
2013-03-16 04:55:00,24.6,16.9,29.84,NNW,337,2.0,3.0,72,0.00,SCT,,0.00,0.0,WeatherDisplay:10.37,2013-03-16 08:55:00,
2013-03-16 05:00:00,24.4,17.0,29.84,NNW,337,0.0,0.0,73,0.00,SCT,,0.00,0.0,WeatherDisplay:10.37,2013-03-16 09:00:00,
2013-03-16 05:05:00,24.2,16.8,29.84,NNW,337,1.3,2.3,73,0.00,FEW,,0.00,0.0,WeatherDisplay:10.37,2013-03-16 09:05:00,
2013-03-16 05:10:00,23.9,16.8,29.84,NNW,337,0.9,2.3,74,0.00,FEW,,0.00,0.0,WeatherDisplay:10.37,2013-03-16 09:10:00,
2013-03-16 05:15:00,23.7,16.6,29.84,NNW,337,0.1,1.1,74,0.00,FEW,,0.00,0.0,WeatherDisplay:10.37,2013-03-16 09:15:00,
2013-03-16 05:20:00,23.6,16.8,29.84,NNW,337,0.1,1.1,75,0.00,FEW,,0.00,0.0,WeatherDisplay:10.37,2013-03-16 09:20:00,
2013-03-16 05:25:00,23.4,16.6,29.84,NNW,337,0.2,0.0,75,0.00,FEW,,0.00,0.0,WeatherDisplay:10.37,2013-03-16 09:25:00,
2013-03-16 05:30:00,23.3,16.5,29.84,NNW,337,0.0,0.0,75,0.00,FEW,,0.00,0.0,WeatherDisplay:10.37,2013-03-16 09:30:00,
2013-03-16 05:35:00,23.2,16.5,29.84,NNW,337,0.0,1.0,75,0.00,FEW,,0.00,0.0,WeatherDisplay:10.37,2013-03-16 09:35:00,
2013-03-16 05:40:00,23.1,16.7,29.84,NNW,337,0.0,1.0,76,0.00,FEW,,0.00,0.0,WeatherDisplay:10.37,2013-03-16 09:40:00,
2013-03-16 05:45:00,23.0,16.6,29.85,NNW,337,1.6,2.3,76,0.00,FEW,,0.00,0.0,WeatherDisplay:10.37,2013-03-16 09:45:00,
2013-03-16 05:50:00,23.0,16.5,29.85,NNW,337,1.0,3.0,76,0.00,FEW,,0.00,0.0,WeatherDisplay:10.37,2013-03-16 09:50:00,
2013-03-16 05:55:00,22.9,16.5,29.85,NNW,337,2.0,3.5,76,0.00,FEW,,0.00,0.0,WeatherDisplay:10.37,2013-03-16 09:55:00,
2013-03-16 06:00:00,22.9,16.5,29.85,NNW,337,1.4,3.0,76,0.00,FEW,,0.00,0.0,WeatherDisplay:10.37,2013-03-16 10:00:00,
2013-03-16 06:05:00,22.9,16.5,29.85,NW,321,3.0,5.0,76,0.00,CLR,,0.00,0.0,WeatherDisplay:10.37,2013-03-16 10:05:00,
2013-03-16 06:10:00,22.9,16.5,29.85,NW,309,2.0,5.0,76,0.00,CLR,,0.00,0.0,WeatherDisplay:10.37,2013-03-16 10:10:00,
2013-03-16 06:15:00,22.8,16.4,29.85,NW,306,2.5,3.5,76,0.00,CLR,,0.00,0.0,WeatherDisplay:10.37,2013-03-16 10:15:00,
2013-03-16 06:20:00,22.8,16.1,29.85,NW,306,1.0,3.0,75,0.00,CLR,,0.00,0.0,WeatherDisplay:10.37,2013-03-16 10:20:00,
2013-03-16 06:25:00,22.7,16.3,29.85,NW,306,2.3,3.5,76,0.00,CLR,,0.00,0.0,WeatherDisplay:10.37,2013-03-16 10:25:00,
2013-03-16 06:30:00,22.7,16.3,29.85,NW,306,2.4,4.6,76,0.00,CLR,,0.00,0.0,WeatherDisplay:10.37,2013-03-16 10:30:00,
2013-03-16 06:35:00,22.6,16.2,29.85,NW,306,1.6,3.5,76,0.00,CLR,,0.00,0.0,WeatherDisplay:10.37,2013-03-16 10:35:00,
2013-03-16 06:40:00,22.6,16.2,29.85,NW,307,2.0,5.0,76,0.00,CLR,,0.00,0.0,WeatherDisplay:10.37,2013-03-16 10:40:00,
2013-03-16 06:45:00,22.6,16.2,29.86,NW,306,3.8,4.6,76,0.00,CLR,,0.00,0.0,WeatherDisplay:10.37,2013-03-16 10:45:00,
2013-03-16 06:50:00,22.5,16.4,29.86,NW,306,0.0,3.0,77,0.00,CLR,,0.00,0.0,WeatherDisplay:10.37,2013-03-16 10:50:00,
2013-03-16 06:55:00,22.2,15.8,29.86,NW,306,0.0,0.0,76,0.00,CLR,,0.00,0.0,WeatherDisplay:10.37,2013-03-16 10:55:00,
2013-03-16 07:00:00,22.0,15.9,29.86,NW,306,0.0,1.1,77,0.00,CLR,,0.00,0.0,WeatherDisplay:10.37,2013-03-16 11:00:00,
2013-03-16 07:05:00,22.0,15.9,29.86,NW,306,2.0,4.0,77,0.00,FEW,,0.00,0.0,WeatherDisplay:10.37,2013-03-16 11:05:00,
2013-03-16 07:10:00,21.8,16.0,29.86,NW,306,2.0,3.5,78,0.00,FEW,,0.00,5.6,WeatherDisplay:10.37,2013-03-16 11:10:00,
2013-03-16 07:15:00,21.8,16.0,29.86,NW,306,1.8,3.5,78,0.00,FEW,,0.00,10.2,WeatherDisplay:10.37,2013-03-16 11:15:00,
2013-03-16 07:20:00,21.8,16.0,29.86,NW,306,0.0,3.0,78,0.00,FEW,,0.00,12.4,WeatherDisplay:10.37,2013-03-16 11:20:00,
2013-03-16 07:25:00,21.7,16.2,29.87,NW,306,0.0,0.0,79,0.00,FEW,,0.00,20.3,WeatherDisplay:10.37,2013-03-16 11:25:00,
2013-03-16 07:30:00,21.7,16.2,29.87,NW,306,0.0,0.0,79,0.00,FEW,,0.00,26.0,WeatherDisplay:10.37,2013-03-16 11:30:00,
2013-03-16 07:35:00,21.8,16.6,29.87,NW,306,1.0,1.0,80,0.00,FEW,,0.00,37.3,WeatherDisplay:10.37,2013-03-16 11:35:00,
2013-03-16 07:40:00,22.0,16.8,29.88,NW,306,0.0,2.3,80,0.00,FEW,,0.00,47.5,WeatherDisplay:10.37,2013-03-16 11:40:00,
2013-03-16 07:45:00,22.5,17.5,29.88,NW,306,0.0,2.0,81,0.00,FEW,,0.00,63.3,WeatherDisplay:10.37,2013-03-16 11:45:00,
2013-03-16 07:50:00,23.0,17.5,29.88,NW,306,0.0,2.0,79,0.00,FEW,,0.00,83.6,WeatherDisplay:10.37,2013-03-16 11:50:00,
2013-03-16 07:55:00,23.5,17.3,29.88,NW,306,0.0,1.1,77,0.00,FEW,,0.00,99.4,WeatherDisplay:10.37,2013-03-16 11:55:00,
2013-03-16 08:00:00,23.9,17.1,29.88,NW,306,1.6,3.5,75,0.00,FEW,,0.00,107.4,WeatherDisplay:10.37,2013-03-16 12:00:00,
2013-03-16 08:05:00,24.3,17.8,29.88,NW,306,1.0,3.0,76,0.00,FEW,,0.00,135.6,WeatherDisplay:10.37,2013-03-16 12:05:00,
2013-03-16 08:10:00,24.7,17.6,29.88,NW,306,0.1,1.1,74,0.00,FEW,,0.00,146.9,WeatherDisplay:10.37,2013-03-16 12:10:00,
2013-03-16 08:15:00,25.2,18.1,29.88,NW,306,0.0,1.0,74,0.00,FEW,,0.00,168.4,WeatherDisplay:10.37,2013-03-16 12:15:00,
2013-03-16 08:20:00,25.7,17.9,29.88,NW,306,2.0,3.0,72,0.00,FEW,,0.00,184.2,WeatherDisplay:10.37,2013-03-16 12:20:00,
2013-03-16 08:25:00,26.2,18.1,29.88,NW,306,0.4,3.5,71,0.00,FEW,,0.00,194.4,WeatherDisplay:10.37,2013-03-16 12:25:00,
2013-03-16 08:30:00,26.3,17.8,29.88,NW,306,1.0,2.0,70,0.00,FEW,,0.00,198.9,WeatherDisplay:10.37,2013-03-16 12:30:00,
2013-03-16 08:35:00,26.5,18.4,29.89,NW,306,1.4,3.5,71,0.00,FEW,,0.00,230.5,WeatherDisplay:10.37,2013-03-16 12:35:00,
2013-03-16 08:40:00,26.7,18.2,29.89,NW,306,2.1,2.3,70,0.00,FEW,,0.00,230.5,WeatherDisplay:10.37,2013-03-16 12:40:00,
2013-03-16 08:45:00,27.0,18.2,29.89,NW,306,0.0,2.0,69,0.00,FEW,,0.00,236.2,WeatherDisplay:10.37,2013-03-16 12:45:00,
2013-03-16 08:50:00,27.0,17.5,29.89,North,349,1.0,4.0,67,0.00,FEW,,0.00,278.0,WeatherDisplay:10.37,2013-03-16 12:50:00,
2013-03-16 08:55:00,27.0,17.1,29.89,NE,42,1.0,4.0,66,0.00,FEW,,0.00,236.2,WeatherDisplay:10.37,2013-03-16 12:55:00,
2013-03-16 09:00:00,26.8,17.0,29.89,NE,35,0.0,5.0,66,0.00,FEW,,0.00,254.2,WeatherDisplay:10.37,2013-03-16 13:00:00,
2013-03-16 09:05:00,26.8,17.0,29.89,NNE,32,1.4,3.0,66,0.00,BKN,,0.00,267.8,WeatherDisplay:10.37,2013-03-16 13:05:00,
2013-03-16 09:10:00,26.8,17.0,29.88,ENE,64,0.2,2.3,66,0.00,BKN,,0.00,293.8,WeatherDisplay:10.37,2013-03-16 13:10:00,
2013-03-16 09:15:00,26.9,17.0,29.88,NNE,22,2.0,3.5,66,0.00,BKN,,0.00,341.3,WeatherDisplay:10.37,2013-03-16 13:15:00,
2013-03-16 09:20:00,27.1,17.2,29.88,NNE,32,3.1,4.0,66,0.00,BKN,,0.00,322.0,WeatherDisplay:10.37,2013-03-16 13:20:00,
2013-03-16 09:25:00,26.9,16.7,29.88,NNE,31,1.6,3.5,65,0.00,BKN,,0.00,249.7,WeatherDisplay:10.37,2013-03-16 13:25:00,
2013-03-16 09:30:00,26.9,17.0,29.89,NNE,30,1.8,3.5,66,0.00,BKN,,0.00,248.6,WeatherDisplay:10.37,2013-03-16 13:30:00,
2013-03-16 09:35:00,26.7,16.1,29.89,NW,321,2.5,3.5,64,0.00,BKN,,0.00,244.1,WeatherDisplay:10.37,2013-03-16 13:35:00,
2013-03-16 09:40:00,26.7,16.9,29.89,NW,321,2.0,3.5,66,0.00,BKN,,0.00,249.7,WeatherDisplay:10.37,2013-03-16 13:40:00,
2013-03-16 09:45:00,26.7,16.9,29.89,NW,321,2.0,4.0,66,0.00,BKN,,0.00,258.8,WeatherDisplay:10.37,2013-03-16 13:45:00,
2013-03-16 09:50:00,26.7,17.2,29.89,NW,310,3.4,4.6,67,0.00,BKN,,0.00,222.6,WeatherDisplay:10.37,2013-03-16 13:50:00,
2013-03-16 09:55:00,26.7,16.9,29.89,NW,310,2.3,3.5,66,0.00,BKN,,0.00,209.1,WeatherDisplay:10.37,2013-03-16 13:55:00,
2013-03-16 10:00:00,26.7,16.9,29.89,NW,305,2.1,3.5,66,0.00,BKN,,0.00,206.8,WeatherDisplay:10.37,2013-03-16 14:00:00,
2013-03-16 10:05:00,26.7,16.9,29.88,NW,305,2.8,3.5,66,0.00,BKN,,0.00,244.1,WeatherDisplay:10.37,2013-03-16 14:05:00,
2013-03-16 10:11:00,26.8,17.3,29.88,NW,323,0.2,2.3,67,0.00,BKN,,0.00,325.4,WeatherDisplay:10.37,2013-03-16 14:11:00,
2013-03-16 10:16:00,26.9,17.0,29.88,NNW,344,1.0,3.0,66,0.00,BKN,,0.00,314.1,WeatherDisplay:10.37,2013-03-16 14:16:00,
2013-03-16 10:21:00,26.8,17.3,29.88,NW,309,3.5,4.6,67,0.00,BKN,,0.00,244.1,WeatherDisplay:10.37,2013-03-16 14:21:00,
2013-03-16 10:26:00,27.0,17.8,29.88,NW,309,3.4,4.6,68,0.00,BKN,,0.00,319.8,WeatherDisplay:10.37,2013-03-16 14:26:00,
2013-03-16 10:31:00,27.3,17.8,29.88,NW,309,0.5,2.3,67,0.00,BKN,,0.00,337.9,WeatherDisplay:10.37,2013-03-16 14:31:00,
2013-03-16 10:36:00,27.6,17.7,29.88,NW,309,1.3,2.3,66,0.00,BKN,,0.00,450.9,WeatherDisplay:10.37,2013-03-16 14:36:00,
2013-03-16 10:41:00,27.9,18.4,29.88,WNW,298,3.2,4.6,67,0.00,BKN,,0.00,357.1,WeatherDisplay:10.37,2013-03-16 14:41:00,
2013-03-16 10:46:00,27.8,16.8,29.88,WNW,298,0.8,2.3,63,0.00,BKN,,0.00,369.5,WeatherDisplay:10.37,2013-03-16 14:46:00,
2013-03-16 10:51:00,27.9,17.3,29.88,West,261,2.7,4.6,64,0.00,BKN,,0.00,626.0,WeatherDisplay:10.37,2013-03-16 14:51:00,
2013-03-16 10:57:00,28.1,17.5,29.88,WSW,254,0.5,1.1,64,0.00,BKN,,0.00,631.7,WeatherDisplay:10.37,2013-03-16 14:57:00,
2013-03-16 11:02:00,28.4,17.8,29.88,WSW,246,1.7,3.5,64,0.00,BKN,,0.00,655.4,WeatherDisplay:10.37,2013-03-16 15:02:00,
2013-03-16 11:07:00,28.7,17.3,29.87,SE,132,1.0,3.5,62,0.00,BKN,,0.00,710.8,WeatherDisplay:10.37,2013-03-16 15:07:00,
2013-03-16 11:12:00,29.2,18.5,29.87,SSE,167,0.1,1.1,64,0.00,BKN,,0.00,717.6,WeatherDisplay:10.37,2013-03-16 15:12:00,
2013-03-16 11:17:00,29.4,17.2,29.87,WSW,245,3.3,3.5,60,0.00,BKN,,0.00,372.9,WeatherDisplay:10.37,2013-03-16 15:17:00,
2013-03-16 11:22:00,29.6,17.4,29.87,WNW,303,1.4,3.5,60,0.00,BKN,,0.00,618.1,WeatherDisplay:10.37,2013-03-16 15:22:00,
2013-03-16 11:27:00,30.0,17.4,29.86,WNW,298,2.5,3.5,59,0.00,BKN,,0.00,544.7,WeatherDisplay:10.37,2013-03-16 15:27:00,
2013-03-16 11:32:00,29.6,15.8,29.86,WNW,298,0.0,0.0,56,0.00,BKN,,0.00,417.0,WeatherDisplay:10.37,2013-03-16 15:32:00,
2013-03-16 11:37:00,29.2,15.8,29.86,East,88,2.7,3.5,57,0.00,BKN,,0.00,534.5,WeatherDisplay:10.37,2013-03-16 15:37:00,
2013-03-16 11:42:00,29.3,16.7,29.86,East,82,1.9,2.3,59,0.00,BKN,,0.00,653.1,WeatherDisplay:10.37,2013-03-16 15:42:00,
2013-03-16 11:47:00,29.6,16.6,29.86,NW,306,1.9,3.5,58,0.00,BKN,,0.00,812.5,WeatherDisplay:10.37,2013-03-16 15:47:00,
2013-03-16 11:52:00,30.3,18.5,29.86,WNW,289,4.0,8.1,61,0.00,BKN,,0.00,867.8,WeatherDisplay:10.37,2013-03-16 15:52:00,
2013-03-16 11:57:00,30.3,16.0,29.86,NW,319,1.8,3.5,55,0.00,BKN,,0.00,927.7,WeatherDisplay:10.37,2013-03-16 15:57:00,
2013-03-16 12:02:00,30.6,16.3,29.86,WNW,289,4.0,5.0,55,0.00,BKN,,0.00,898.4,WeatherDisplay:10.37,2013-03-16 16:02:00,
2013-03-16 12:07:00,30.5,16.2,29.85,WNW,287,4.6,8.1,55,0.00,BKN,,0.00,746.9,WeatherDisplay:10.37,2013-03-16 16:07:00,
2013-03-16 12:12:00,30.4,17.8,29.85,WSW,254,3.5,6.9,59,0.00,BKN,,0.00,875.7,WeatherDisplay:10.37,2013-03-16 16:12:00,
2013-03-16 12:18:00,30.4,17.0,29.85,West,265,3.5,3.5,57,0.00,BKN,,0.00,736.8,WeatherDisplay:10.37,2013-03-16 16:18:00,
2013-03-16 12:22:00,30.4,16.1,29.85,WNW,290,2.9,4.0,55,0.00,BKN,,0.00,814.7,WeatherDisplay:10.37,2013-03-16 16:22:00,
2013-03-16 12:28:00,30.8,16.9,29.85,WNW,290,2.9,3.5,56,0.00,BKN,,0.00,687.0,WeatherDisplay:10.37,2013-03-16 16:28:00,
2013-03-16 12:33:00,31.3,17.4,29.85,WNW,290,1.4,3.5,56,0.00,BKN,,0.00,728.8,WeatherDisplay:10.37,2013-03-16 16:33:00,
2013-03-16 12:38:00,31.6,16.8,29.85,WSW,246,3.4,6.9,54,0.00,BKN,,0.00,731.1,WeatherDisplay:10.37,2013-03-16 16:38:00,
2013-03-16 12:43:00,31.8,17.9,29.85,WNW,286,5.7,7.0,56,0.00,BKN,,0.00,941.3,WeatherDisplay:10.37,2013-03-16 16:43:00,
2013-03-16 12:48:00,32.3,17.9,29.85,WNW,299,1.9,3.5,55,0.00,BKN,,0.00,744.7,WeatherDisplay:10.37,2013-03-16 16:48:00,
2013-03-16 12:53:00,32.1,16.4,29.86,West,280,5.5,8.1,52,0.00,BKN,,0.00,544.7,WeatherDisplay:10.37,2013-03-16 16:53:00,
2013-03-16 12:58:00,31.9,16.7,29.86,WNW,298,4.1,6.0,53,0.00,BKN,,0.00,474.6,WeatherDisplay:10.37,2013-03-16 16:58:00,
2013-03-16 13:03:00,31.8,16.6,29.86,West,277,6.5,8.1,53,0.00,BKN,,0.00,592.1,WeatherDisplay:10.37,2013-03-16 17:03:00,
2013-03-16 13:08:00,31.3,15.7,29.85,West,277,3.5,3.5,52,0.00,BKN,,0.00,814.7,WeatherDisplay:10.37,2013-03-16 17:08:00,
2013-03-16 13:13:00,31.5,16.3,29.85,WNW,286,4.1,5.0,53,0.00,BKN,,0.00,832.8,WeatherDisplay:10.37,2013-03-16 17:13:00,
2013-03-16 13:18:00,31.5,16.3,29.85,West,272,4.2,6.9,53,0.00,BKN,,0.00,739.0,WeatherDisplay:10.37,2013-03-16 17:18:00,
2013-03-16 13:23:00,31.4,16.2,29.85,SW,232,3.3,5.8,53,0.00,BKN,,0.00,734.5,WeatherDisplay:10.37,2013-03-16 17:23:00,
2013-03-16 13:28:00,31.9,17.1,29.85,NW,325,1.6,5.0,54,0.00,BKN,,0.00,760.5,WeatherDisplay:10.37,2013-03-16 17:28:00,
2013-03-16 13:33:00,32.7,19.1,29.85,West,276,7.5,8.1,57,0.00,BKN,,0.00,822.6,WeatherDisplay:10.37,2013-03-16 17:33:00,
2013-03-16 13:38:00,33.2,17.5,29.85,West,275,1.1,2.0,52,0.00,BKN,,0.00,389.9,WeatherDisplay:10.37,2013-03-16 17:38:00,
2013-03-16 13:43:00,33.1,17.4,29.84,WNW,291,3.3,6.9,52,0.00,BKN,,0.00,455.4,WeatherDisplay:10.37,2013-03-16 17:43:00,
2013-03-16 13:48:00,32.5,16.4,29.84,East,83,0.0,1.1,51,0.00,BKN,,0.00,367.2,WeatherDisplay:10.37,2013-03-16 17:48:00,
2013-03-16 13:53:00,32.2,16.5,29.84,NNE,13,1.4,3.5,52,0.00,BKN,,0.00,393.2,WeatherDisplay:10.37,2013-03-16 17:53:00,
2013-03-16 13:58:00,32.1,16.4,29.84,NNE,13,2.2,3.5,52,0.00,BKN,,0.00,432.8,WeatherDisplay:10.37,2013-03-16 17:58:00,
2013-03-16 14:03:00,32.2,16.1,29.84,North,10,1.6,3.5,51,0.00,BKN,,0.00,377.4,WeatherDisplay:10.37,2013-03-16 18:03:00,
2013-03-16 14:08:00,32.4,16.3,29.84,NW,309,3.3,3.5,51,0.00,BKN,,0.00,389.9,WeatherDisplay:10.37,2013-03-16 18:08:00,
2013-03-16 14:13:00,32.5,16.4,29.84,NW,309,1.6,2.3,51,0.00,BKN,,0.00,401.2,WeatherDisplay:10.37,2013-03-16 18:13:00,
2013-03-16 14:18:00,32.6,16.4,29.85,NW,309,0.1,1.1,51,0.00,BKN,,0.00,322.0,WeatherDisplay:10.37,2013-03-16 18:18:00,
2013-03-16 14:23:00,32.5,16.8,29.84,NNE,19,1.2,2.3,52,0.00,BKN,,0.00,317.5,WeatherDisplay:10.37,2013-03-16 18:23:00,
2013-03-16 14:28:00,32.4,15.3,29.85,NNE,19,0.5,2.3,49,0.00,BKN,,0.00,267.8,WeatherDisplay:10.37,2013-03-16 18:28:00,
2013-03-16 14:33:00,32.3,16.6,29.84,NNE,19,0.8,2.3,52,0.00,BKN,,0.00,337.9,WeatherDisplay:10.37,2013-03-16 18:33:00,
2013-03-16 14:38:00,32.4,18.0,29.84,NNW,344,3.5,4.0,55,0.00,BKN,,0.00,290.4,WeatherDisplay:10.37,2013-03-16 18:38:00,
2013-03-16 14:43:00,32.5,18.1,29.83,NNW,346,1.2,2.0,55,0.00,BKN,,0.00,307.4,WeatherDisplay:10.37,2013-03-16 18:43:00,
2013-03-16 14:48:00,32.6,17.3,29.83,NNW,330,2.6,4.0,53,0.00,BKN,,0.00,379.7,WeatherDisplay:10.37,2013-03-16 18:48:00,
2013-03-16 14:53:00,32.8,17.1,29.83,NW,316,1.4,3.5,52,0.00,BKN,,0.00,629.4,WeatherDisplay:10.37,2013-03-16 18:53:00,
2013-03-16 14:58:00,33.3,16.6,29.83,NW,316,0.3,1.1,50,0.00,BKN,,0.00,649.7,WeatherDisplay:10.37,2013-03-16 18:58:00,
2013-03-16 15:03:00,33.3,17.1,29.82,East,100,1.3,3.5,51,0.00,BKN,,0.00,510.8,WeatherDisplay:10.37,2013-03-16 19:03:00,
2013-03-16 15:08:00,33.4,16.7,29.82,ESE,104,4.5,5.8,50,0.00,BKN,,0.00,659.9,WeatherDisplay:10.37,2013-03-16 19:08:00,
2013-03-16 15:13:00,33.4,17.6,29.82,East,90,1.2,3.5,52,0.00,BKN,,0.00,653.1,WeatherDisplay:10.37,2013-03-16 19:13:00,
2013-03-16 15:18:00,33.9,16.7,29.82,SE,139,1.9,4.6,49,0.00,BKN,,0.00,586.5,WeatherDisplay:10.37,2013-03-16 19:18:00,
2013-03-16 15:23:00,34.3,16.6,29.81,SE,135,0.3,1.1,48,0.00,BKN,,0.00,605.7,WeatherDisplay:10.37,2013-03-16 19:23:00,
2013-03-16 15:28:00,34.6,17.4,29.81,North,11,1.6,4.0,49,0.00,BKN,,0.00,633.9,WeatherDisplay:10.37,2013-03-16 19:28:00,
2013-03-16 15:33:00,34.9,16.7,29.81,NW,316,2.1,3.5,47,0.00,BKN,,0.00,645.2,WeatherDisplay:10.37,2013-03-16 19:33:00,
2013-03-16 15:38:00,35.1,16.9,29.81,NW,306,2.8,3.5,47,0.00,BKN,,0.00,644.1,WeatherDisplay:10.37,2013-03-16 19:38:00,
2013-03-16 15:43:00,35.4,16.6,29.81,NW,306,0.0,1.1,46,0.00,BKN,,0.00,637.3,WeatherDisplay:10.37,2013-03-16 19:43:00,
2013-03-16 15:48:00,34.8,17.1,29.81,NW,304,1.4,3.5,48,0.00,BKN,,0.00,385.3,WeatherDisplay:10.37,2013-03-16 19:48:00,
2013-03-16 15:53:00,34.6,16.9,29.81,NW,304,0.0,0.0,48,0.00,BKN,,0.00,332.2,WeatherDisplay:10.37,2013-03-16 19:53:00,
2013-03-16 15:59:00,34.3,14.6,29.81,NNE,23,0.6,2.3,44,0.00,BKN,,0.00,275.7,WeatherDisplay:10.37,2013-03-16 19:59:00,
2013-03-16 16:04:00,34.2,16.0,29.81,NW,305,2.3,4.6,47,0.00,BKN,,0.00,254.2,WeatherDisplay:10.37,2013-03-16 20:04:00,
2013-03-16 16:09:00,34.1,16.4,29.81,WNW,296,1.9,3.5,48,0.00,BKN,,0.00,244.1,WeatherDisplay:10.37,2013-03-16 20:09:00,
2013-03-16 16:14:00,34.1,15.9,29.81,WNW,300,2.0,3.5,47,0.00,BKN,,0.00,209.1,WeatherDisplay:10.37,2013-03-16 20:14:00,
2013-03-16 16:19:00,33.8,15.7,29.81,NNW,327,1.8,2.0,47,0.00,BKN,,0.00,222.6,WeatherDisplay:10.37,2013-03-16 20:19:00,
2013-03-16 16:24:00,33.7,16.1,29.81,NNW,327,0.8,2.3,48,0.00,BKN,,0.00,175.1,WeatherDisplay:10.37,2013-03-16 20:24:00,
2013-03-16 16:29:00,33.5,15.4,29.81,NNW,327,0.8,3.5,47,0.00,BKN,,0.00,128.8,WeatherDisplay:10.37,2013-03-16 20:29:00,
2013-03-16 16:34:00,33.4,16.3,29.81,NNW,327,0.0,1.1,49,0.00,BKN,,0.00,172.9,WeatherDisplay:10.37,2013-03-16 20:34:00,
2013-03-16 16:39:00,33.5,15.9,29.80,NNW,327,0.2,1.1,48,0.00,BKN,,0.00,159.3,WeatherDisplay:10.37,2013-03-16 20:39:00,
2013-03-16 16:44:00,33.5,16.4,29.80,WNW,303,0.6,3.5,49,0.00,BKN,,0.00,180.8,WeatherDisplay:10.37,2013-03-16 20:44:00,
2013-03-16 16:49:00,33.5,17.3,29.81,NW,306,0.0,0.0,51,0.00,BKN,,0.00,183.1,WeatherDisplay:10.37,2013-03-16 20:49:00,
2013-03-16 16:54:00,33.6,17.8,29.81,NW,306,3.3,3.5,52,0.00,BKN,,0.00,154.8,WeatherDisplay:10.37,2013-03-16 20:54:00,
2013-03-16 16:59:00,33.6,16.5,29.81,NW,306,2.2,3.5,49,0.00,BKN,,0.00,141.3,WeatherDisplay:10.37,2013-03-16 20:59:00,
2013-03-16 17:04:00,33.5,17.3,29.81,NW,306,1.0,3.0,51,0.00,OVC,,0.00,117.5,WeatherDisplay:10.37,2013-03-16 21:04:00,
2013-03-16 17:09:00,33.4,16.3,29.80,NNE,17,0.4,2.3,49,0.00,OVC,,0.00,139.0,WeatherDisplay:10.37,2013-03-16 21:09:00,
2013-03-16 17:14:00,33.3,17.1,29.81,NNE,17,0.4,1.1,51,0.00,OVC,,0.00,131.1,WeatherDisplay:10.37,2013-03-16 21:14:00,
2013-03-16 17:19:00,33.2,16.1,29.81,NNE,17,0.0,0.0,49,0.00,OVC,,0.00,131.1,WeatherDisplay:10.37,2013-03-16 21:19:00,
2013-03-16 17:24:00,33.1,16.0,29.81,NNE,17,0.0,0.0,49,0.00,OVC,,0.00,115.3,WeatherDisplay:10.37,2013-03-16 21:24:00,
2013-03-16 17:30:00,33.0,15.9,29.80,NNE,17,0.0,0.0,49,0.00,OVC,,0.00,157.1,WeatherDisplay:10.37,2013-03-16 21:30:00,
2013-03-16 17:35:00,33.0,15.9,29.81,NNE,17,0.1,0.0,49,0.00,OVC,,0.00,152.6,WeatherDisplay:10.37,2013-03-16 21:35:00,
2013-03-16 17:40:00,33.2,17.5,29.81,NNE,17,0.0,1.1,52,0.00,OVC,,0.00,131.1,WeatherDisplay:10.37,2013-03-16 21:40:00,
2013-03-16 17:45:00,33.2,16.1,29.81,NNE,17,0.9,2.3,49,0.00,OVC,,0.00,71.2,WeatherDisplay:10.37,2013-03-16 21:45:00,
2013-03-16 17:50:00,32.9,15.3,29.81,NNE,17,0.4,2.3,48,0.00,OVC,,0.00,78.0,WeatherDisplay:10.37,2013-03-16 21:50:00,
2013-03-16 17:55:00,32.8,17.1,29.81,NNE,17,1.5,3.5,52,0.00,OVC,,0.00,61.0,WeatherDisplay:10.37,2013-03-16 21:55:00,
2013-03-16 18:00:00,32.6,16.9,29.81,NNE,17,0.7,2.3,52,0.00,OVC,,0.00,49.7,WeatherDisplay:10.37,2013-03-16 22:00:00,
2013-03-16 18:05:00,32.5,16.4,29.81,NNE,17,0.0,0.0,51,0.00,OVC,,0.00,45.2,WeatherDisplay:10.37,2013-03-16 22:05:00,
2013-03-16 18:10:00,32.4,16.7,29.82,NNE,17,1.7,2.3,52,0.00,OVC,,0.00,44.1,WeatherDisplay:10.37,2013-03-16 22:10:00,
2013-03-16 18:15:00,32.3,17.9,29.81,NNE,17,0.0,1.0,55,0.00,OVC,,0.00,37.3,WeatherDisplay:10.37,2013-03-16 22:15:00,
2013-03-16 18:20:00,32.2,17.4,29.81,North,360,2.2,3.5,54,0.00,OVC,,0.00,36.2,WeatherDisplay:10.37,2013-03-16 22:20:00,
2013-03-16 18:25:00,32.1,17.3,29.81,WNW,302,2.0,3.5,54,0.00,OVC,,0.00,28.2,WeatherDisplay:10.37,2013-03-16 22:25:00,
2013-03-16 18:30:00,32.0,17.2,29.81,WNW,303,2.9,4.6,54,0.00,OVC,,0.00,21.5,WeatherDisplay:10.37,2013-03-16 22:30:00,
2013-03-16 18:35:00,31.9,17.1,29.82,WNW,303,0.5,2.3,54,0.00,OVC,,0.00,20.3,WeatherDisplay:10.37,2013-03-16 22:35:00,
2013-03-16 18:40:00,31.8,17.0,29.82,WNW,303,0.0,0.0,54,0.00,OVC,,0.00,15.8,WeatherDisplay:10.37,2013-03-16 22:40:00,
2013-03-16 18:45:00,31.7,18.2,29.82,WNW,303,3.7,4.6,57,0.00,OVC,,0.00,10.2,WeatherDisplay:10.37,2013-03-16 22:45:00,
2013-03-16 18:50:00,31.6,18.1,29.82,WNW,303,2.0,3.5,57,0.00,OVC,,0.00,7.9,WeatherDisplay:10.37,2013-03-16 22:50:00,
2013-03-16 18:55:00,31.5,18.0,29.82,NW,304,1.6,2.3,57,0.00,OVC,,0.00,0.0,WeatherDisplay:10.37,2013-03-16 22:55:00,
2013-03-16 19:00:00,31.4,18.7,29.82,NW,304,0.0,1.1,59,0.00,OVC,,0.00,0.0,WeatherDisplay:10.37,2013-03-16 23:00:00,
2013-03-16 19:05:00,31.2,18.5,29.82,NW,304,0.7,2.3,59,0.00,OVC,,0.00,0.0,WeatherDisplay:10.37,2013-03-16 23:05:00,
2013-03-16 19:10:00,31.1,18.4,29.83,NW,306,1.9,3.5,59,0.00,OVC,,0.00,0.0,WeatherDisplay:10.37,2013-03-16 23:10:00,
2013-03-16 19:15:00,31.0,18.3,29.83,NW,306,2.0,3.5,59,0.00,OVC,,0.00,0.0,WeatherDisplay:10.37,2013-03-16 23:15:00,
2013-03-16 19:20:00,30.9,18.2,29.83,NW,306,0.9,2.3,59,0.00,OVC,,0.00,0.0,WeatherDisplay:10.37,2013-03-16 23:20:00,
2013-03-16 19:25:00,30.8,18.5,29.84,NW,306,2.0,3.5,60,0.00,OVC,,0.00,0.0,WeatherDisplay:10.37,2013-03-16 23:25:00,
2013-03-16 19:30:00,30.7,18.4,29.84,NW,304,2.0,4.6,60,0.00,OVC,,0.00,0.0,WeatherDisplay:10.37,2013-03-16 23:30:00,
2013-03-16 19:35:00,30.6,19.1,29.84,NW,304,2.9,5.0,62,0.00,OVC,,0.00,0.0,WeatherDisplay:10.37,2013-03-16 23:35:00,
2013-03-16 19:40:00,30.6,18.7,29.84,NW,304,3.3,3.5,61,0.00,OVC,,0.00,0.0,WeatherDisplay:10.37,2013-03-16 23:40:00,
2013-03-16 19:45:00,30.5,19.4,29.84,WNW,303,3.8,4.6,63,0.00,OVC,,0.00,0.0,WeatherDisplay:10.37,2013-03-16 23:45:00,
2013-03-16 19:50:00,30.3,19.2,29.85,NW,304,2.9,4.6,63,0.00,OVC,,0.00,0.0,WeatherDisplay:10.37,2013-03-16 23:50:00,
2013-03-16 19:55:00,30.3,18.8,29.84,NW,308,3.0,5.0,62,0.00,OVC,,0.00,0.0,WeatherDisplay:10.37,2013-03-16 23:55:00,
2013-03-16 20:00:00,30.3,18.8,29.84,NW,304,3.8,4.6,62,0.00,OVC,,0.00,0.0,WeatherDisplay:10.37,2013-03-17 00:00:00,
2013-03-16 20:05:00,30.4,18.9,29.85,WNW,288,5.2,6.9,62,0.00,-SN,,0.00,0.0,WeatherDisplay:10.37,2013-03-17 00:05:00,
2013-03-16 20:10:00,30.4,19.3,29.85,WNW,284,2.0,3.5,63,0.00,-SN,,0.00,0.0,WeatherDisplay:10.37,2013-03-17 00:10:00,
2013-03-16 20:15:00,30.3,19.2,29.85,WNW,296,4.2,5.8,63,0.00,-SN,,0.00,0.0,WeatherDisplay:10.37,2013-03-17 00:15:00,
2013-03-16 20:20:00,30.3,19.2,29.85,WNW,298,4.1,7.0,63,0.00,-SN,,0.00,0.0,WeatherDisplay:10.37,2013-03-17 00:20:00,
2013-03-16 20:25:00,30.2,19.1,29.85,WNW,299,3.4,5.0,63,0.00,-SN,,0.00,0.0,WeatherDisplay:10.37,2013-03-17 00:25:00,
2013-03-16 20:30:00,30.0,19.3,29.86,WNW,303,2.8,3.5,64,0.00,-SN,,0.00,0.0,WeatherDisplay:10.37,2013-03-17 00:30:00,
2013-03-16 20:35:00,29.8,19.1,29.86,WNW,301,3.3,5.8,64,0.00,-SN,,0.00,0.0,WeatherDisplay:10.37,2013-03-17 00:35:00,
2013-03-16 20:40:00,29.7,19.0,29.86,WNW,301,2.5,3.5,64,0.00,-SN,,0.00,0.0,WeatherDisplay:10.37,2013-03-17 00:40:00,
2013-03-16 20:45:00,29.6,19.3,29.86,WNW,301,1.9,3.5,65,0.00,-SN,,0.00,0.0,WeatherDisplay:10.37,2013-03-17 00:45:00,
2013-03-16 20:50:00,29.4,19.1,29.86,WNW,301,1.8,2.0,65,0.00,-SN,,0.00,0.0,WeatherDisplay:10.37,2013-03-17 00:50:00,
2013-03-16 20:55:00,29.2,18.9,29.86,WNW,301,1.0,3.0,65,0.00,-SN,,0.00,0.0,WeatherDisplay:10.37,2013-03-17 00:55:00,
2013-03-16 21:00:00,29.0,18.7,29.87,WNW,301,1.9,3.5,65,0.00,-SN,,0.00,0.0,WeatherDisplay:10.37,2013-03-17 01:00:00,
2013-03-16 21:05:00,29.0,19.1,29.87,WNW,301,2.6,3.5,66,0.00,BKN,,0.00,0.0,WeatherDisplay:10.37,2013-03-17 01:05:00,
2013-03-16 21:10:00,28.9,19.3,29.87,WNW,301,2.0,3.5,67,0.00,BKN,,0.00,0.0,WeatherDisplay:10.37,2013-03-17 01:10:00,
2013-03-16 21:15:00,28.8,18.9,29.87,WNW,299,5.0,7.0,66,0.00,BKN,,0.00,0.0,WeatherDisplay:10.37,2013-03-17 01:15:00,
2013-03-16 21:20:00,28.7,19.1,29.87,WNW,300,4.2,5.8,67,0.00,BKN,,0.00,0.0,WeatherDisplay:10.37,2013-03-17 01:20:00,
2013-03-16 21:25:00,28.7,19.1,29.87,WNW,299,2.0,6.0,67,0.00,BKN,,0.00,0.0,WeatherDisplay:10.37,2013-03-17 01:25:00,
2013-03-16 21:30:00,28.6,19.0,29.88,WNW,296,5.0,6.0,67,0.00,BKN,,0.00,0.0,WeatherDisplay:10.37,2013-03-17 01:30:00,
2013-03-16 21:35:00,28.5,18.6,29.88,WNW,288,2.8,3.5,66,0.00,BKN,,0.00,0.0,WeatherDisplay:10.37,2013-03-17 01:35:00,
2013-03-16 21:40:00,28.5,18.9,29.88,WNW,289,3.0,6.0,67,0.00,BKN,,0.00,0.0,WeatherDisplay:10.37,2013-03-17 01:40:00,
2013-03-16 21:45:00,28.4,18.5,29.88,WNW,291,2.4,3.5,66,0.00,BKN,,0.00,0.0,WeatherDisplay:10.37,2013-03-17 01:45:00,
2013-03-16 21:50:00,28.3,18.7,29.88,WNW,291,2.5,3.5,67,0.00,BKN,,0.00,0.0,WeatherDisplay:10.37,2013-03-17 01:50:00,
2013-03-16 21:55:00,28.3,18.7,29.88,WNW,291,2.0,4.0,67,0.00,BKN,,0.00,0.0,WeatherDisplay:10.37,2013-03-17 01:55:00,
2013-03-16 22:00:00,28.3,18.7,29.88,WNW,291,3.0,4.0,67,0.00,BKN,,0.00,0.0,WeatherDisplay:10.37,2013-03-17 02:00:00,
2013-03-16 22:05:00,28.1,18.6,29.89,WNW,291,2.0,4.0,67,0.00,SCT,,0.00,0.0,WeatherDisplay:10.37,2013-03-17 02:05:00,
2013-03-16 22:10:00,28.0,18.8,29.89,WNW,291,1.4,3.5,68,0.00,SCT,,0.00,0.0,WeatherDisplay:10.37,2013-03-17 02:10:00,
2013-03-16 22:15:00,27.9,18.4,29.89,WNW,291,1.3,1.3,67,0.00,SCT,,0.00,0.0,WeatherDisplay:10.37,2013-03-17 02:15:00,
2013-03-16 22:20:00,27.8,18.3,29.89,WNW,291,0.0,2.0,67,0.00,SCT,,0.00,0.0,WeatherDisplay:10.37,2013-03-17 02:20:00,
2013-03-16 22:25:00,27.6,18.1,29.89,WNW,291,2.0,3.0,67,0.00,SCT,,0.00,0.0,WeatherDisplay:10.37,2013-03-17 02:25:00,
2013-03-16 22:30:00,27.5,18.0,29.89,WNW,291,0.8,2.0,67,0.00,SCT,,0.00,0.0,WeatherDisplay:10.37,2013-03-17 02:30:00,
2013-03-16 22:35:00,27.4,17.9,29.89,WNW,291,3.0,5.0,67,0.00,SCT,,0.00,0.0,WeatherDisplay:10.37,2013-03-17 02:35:00,
2013-03-16 22:40:00,27.3,17.8,29.90,WNW,290,2.4,5.8,67,0.00,SCT,,0.00,0.0,WeatherDisplay:10.37,2013-03-17 02:40:00,
2013-03-16 22:45:00,27.2,17.7,29.90,WNW,290,1.1,3.0,67,0.00,SCT,,0.00,0.0,WeatherDisplay:10.37,2013-03-17 02:45:00,
2013-03-16 22:50:00,27.1,17.9,29.90,WNW,290,2.1,4.6,68,0.00,SCT,,0.00,0.0,WeatherDisplay:10.37,2013-03-17 02:50:00,
2013-03-16 22:55:00,26.9,17.7,29.91,WNW,290,0.7,2.3,68,0.00,SCT,,0.00,0.0,WeatherDisplay:10.37,2013-03-17 02:55:00,
2013-03-16 23:00:00,26.8,17.6,29.91,West,281,3.5,5.8,68,0.00,SCT,,0.00,0.0,WeatherDisplay:10.37,2013-03-17 03:00:00,
2013-03-16 23:05:00,26.7,17.2,29.91,WNW,295,5.0,6.9,67,0.00,CLR,,0.00,0.0,WeatherDisplay:10.37,2013-03-17 03:05:00,
2013-03-16 23:10:00,26.7,17.2,29.91,WNW,295,0.6,2.3,67,0.00,CLR,,0.00,0.0,WeatherDisplay:10.37,2013-03-17 03:10:00,
2013-03-16 23:15:00,26.8,16.9,29.91,WNW,294,3.0,9.0,66,0.00,CLR,,0.00,0.0,WeatherDisplay:10.37,2013-03-17 03:15:00,
2013-03-16 23:20:00,26.8,17.0,29.91,WNW,282,3.2,5.0,66,0.00,CLR,,0.00,0.0,WeatherDisplay:10.37,2013-03-17 03:20:00,
2013-03-16 23:25:00,26.7,16.9,29.91,WNW,298,3.1,6.9,66,0.00,CLR,,0.00,0.0,WeatherDisplay:10.37,2013-03-17 03:25:00,
2013-03-16 23:30:00,26.6,16.8,29.91,WNW,294,3.0,4.6,66,0.00,CLR,,0.00,0.0,WeatherDisplay:10.37,2013-03-17 03:30:00,
2013-03-16 23:35:00,26.5,16.7,29.91,WNW,296,2.0,6.0,66,0.00,CLR,,0.00,0.0,WeatherDisplay:10.37,2013-03-17 03:35:00,
2013-03-16 23:40:00,26.4,16.9,29.92,WNW,296,4.0,6.0,67,0.00,CLR,,0.00,0.0,WeatherDisplay:10.37,2013-03-17 03:40:00,
2013-03-16 23:45:00,26.4,17.3,29.92,West,277,2.7,4.0,68,0.00,CLR,,0.00,0.0,WeatherDisplay:10.37,2013-03-17 03:45:00,
2013-03-16 23:50:00,26.3,17.2,29.92,WNW,282,3.0,7.0,68,0.00,CLR,,0.00,0.0,WeatherDisplay:10.37,2013-03-17 03:50:00,
2013-03-16 23:55:00,26.2,17.1,29.92,WNW,286,3.5,6.9,68,0.00,CLR,,0.00,0.0,WeatherDisplay:10.37,2013-03-17 03:55:00,